DW0742 Weather Reports


Display with metric or nautical units.
time (UTC)temp
F
wind
direction
speed
MPH
gust
MPH
rain 1hr
in
rain 24hr
in
rain mn
in
humidity
%
barometer
mb
20260508231545 103 59 0.0 6.0 0.00 0.00 0.00 4 1001.9
20260508230435 103 0 0.0 6.0 0.00 0.00 0.00 4 1002.1
20260508224535 104 0 0.0 4.0 0.00 0.00 0.00 4 1002.2
20260508223040 104 0 0.0 3.0 0.00 0.00 0.00 5 1002.4
20260508221540 103 0 0.0 4.0 0.00 0.00 0.00 4 1002.6
20260508220046 103 0 0.0 4.0 0.00 0.00 0.00 4 1002.8
20260508214539 103 0 0.0 2.0 0.00 0.00 0.00 5 1002.9
20260508213038 103 0 0.0 3.0 0.00 0.00 0.00 4 1003.1
20260508211542 103 0 0.0 0.0 0.00 0.00 0.00 4 1003.4
20260508210043 103 0 0.0 0.0 0.00 0.00 0.00 4 1003.7
20260508204547 101 0 0.0 0.0 0.00 0.00 0.00 4 1003.7
20260508203050 102 0 0.0 4.0 0.00 0.00 0.00 4 1004.0
20260508201535 101 0 0.0 0.0 0.00 0.00 0.00 5 1004.2
20260508200047 100 0 0.0 1.0 0.00 0.00 0.00 6 1004.5
20260508194538 100 0 0.0 5.0 0.00 0.00 0.00 5 1004.6
20260508193044 100 0 0.0 5.0 0.00 0.00 0.00 5 1004.7
20260508191549 99 0 0.0 5.0 0.00 0.00 0.00 6 1004.8
20260508190036 100 0 0.0 6.0 0.00 0.00 0.00 6 1004.9
20260508184537 99 0 0.0 1.0 0.00 0.00 0.00 6 1005.0
20260508183043 98 0 0.0 0.0 0.00 0.00 0.00 8 1005.1
20260508181543 97 0 0.0 0.0 0.00 0.00 0.00 10 1005.4
20260508180042 95 0 0.0 0.0 0.00 0.00 0.00 12 1005.4
20260508174547 96 0 0.0 0.0 0.00 0.00 0.00 15 1005.4
20260508173040 94 0 0.0 0.0 0.00 0.00 0.00 15 1005.5
20260508171538 93 0 0.0 0.0 0.00 0.00 0.00 17 1005.6
20260508170040 93 0 0.0 0.0 0.00 0.00 0.00 15 1005.6
20260508164542 91 0 0.0 0.0 0.00 0.00 0.00 19 1005.7
20260508163040 90 0 0.0 0.0 0.00 0.00 0.00 22 1005.8
20260508161545 89 0 0.0 0.0 0.00 0.00 0.00 23 1005.9
20260508160038 88 0 0.0 0.0 0.00 0.00 0.00 26 1005.9
20260508154548 86 0 0.0 0.0 0.00 0.00 0.00 27 1005.8
20260508153044 86 0 0.0 0.0 0.00 0.00 0.00 29 1006.0
20260508151542 84 0 0.0 0.0 0.00 0.00 0.00 31 1006.0
20260508150042 82 0 0.0 0.0 0.00 0.00 0.00 35 1006.0
20260508144544 77 0 0.0 0.0 0.00 0.00 0.00 42 1006.0
20260508143048 73 0 0.0 0.0 0.00 0.00 0.00 49 1006.0
20260508141545 71 0 0.0 0.0 0.00 0.00 0.00 48 1005.9
20260508140053 70 0 0.0 0.0 0.00 0.00 0.00 49 1005.8
20260508134547 69 0 0.0 0.0 0.00 0.00 0.00 50 1005.6
20260508133042 67 0 0.0 0.0 0.00 0.00 0.00 50 1005.4
20260508131539 67 0 0.0 0.0 0.00 0.00 0.00 49 1005.3
20260508130056 67 0 0.0 0.0 0.00 0.00 0.00 48 1005.2
20260508124547 67 0 0.0 0.0 0.00 0.00 0.00 48 1005.0
20260508123051 67 0 0.0 0.0 0.00 0.00 0.00 47 1004.8
20260508121543 68 0 0.0 0.0 0.00 0.00 0.00 48 1004.7
20260508120037 68 0 0.0 0.0 0.00 0.00 0.00 48 1004.8
20260508114545 68 0 0.0 0.0 0.00 0.00 0.00 47 1004.7
20260508113043 69 0 0.0 0.0 0.00 0.00 0.00 46 1004.6
20260508111547 69 0 0.0 0.0 0.00 0.00 0.00 45 1004.6
20260508110043 69 0 0.0 0.0 0.00 0.00 0.00 45 1004.5
20260508104543 69 0 0.0 0.0 0.00 0.00 0.00 45 1004.5
20260508103043 70 0 0.0 0.0 0.00 0.00 0.00 45 1004.6
20260508101544 70 0 0.0 0.0 0.00 0.00 0.00 44 1004.8
20260508100034 71 0 0.0 0.0 0.00 0.00 0.00 43 1004.7
20260508094546 71 0 0.0 0.0 0.00 0.00 0.00 43 1004.7
20260508093050 72 0 0.0 0.0 0.00 0.00 0.00 43 1004.8
20260508091547 72 0 0.0 0.0 0.00 0.00 0.00 41 1004.8
20260508090051 73 0 0.0 0.0 0.00 0.00 0.00 40 1004.9
20260508084535 73 0 0.0 0.0 0.00 0.00 0.00 39 1005.0
20260508083041 74 0 0.0 0.0 0.00 0.00 0.00 38 1005.0
20260508081542 74 0 0.0 0.0 0.00 0.00 0.00 38 1005.0
20260508080048 75 0 0.0 0.0 0.00 0.00 0.00 38 1005.2
20260508074537 75 0 0.0 0.0 0.00 0.00 0.00 37 1005.4
20260508073044 76 0 0.0 0.0 0.00 0.00 0.00 36 1005.4
20260508071548 77 0 0.0 0.0 0.00 0.00 0.00 34 1005.4
20260508070056 77 0 0.0 0.0 0.00 0.00 0.00 33 1005.2
20260508064544 78 0 0.0 0.0 0.00 0.00 0.00 32 1005.3
20260508063040 79 0 0.0 0.0 0.00 0.00 0.00 30 1005.2
20260508061536 80 0 0.0 0.0 0.00 0.00 0.00 28 1005.2
20260508060045 81 0 0.0 0.0 0.00 0.00 0.00 27 1005.2
20260508054548 81 0 0.0 0.0 0.00 0.00 0.00 25 1005.1
20260508053044 83 0 0.0 0.0 0.00 0.00 0.00 23 1005.2
20260508051544 84 0 0.0 0.0 0.00 0.00 0.00 21 1005.0
20260508050036 85 0 0.0 0.0 0.00 0.00 0.00 19 1005.0
20260508044540 86 0 0.0 1.0 0.00 0.00 0.00 16 1004.8
20260508043041 86 0 0.0 2.0 0.00 0.00 0.00 12 1004.5
20260508041540 87 0 0.0 3.0 0.00 0.00 0.00 12 1004.2
20260508040038 88 0 0.0 3.0 0.00 0.00 0.00 12 1003.9
20260508034544 88 0 0.0 3.0 0.00 0.00 0.00 11 1004.0
20260508033106 89 290 0.0 2.0 0.00 0.00 0.00 11 1003.7
20260508031538 90 0 0.0 0.0 0.00 0.00 0.00 14 1003.6
20260508030042 91 0 0.0 3.0 0.00 0.00 0.00 12 1003.5
20260508024538 93 0 0.0 0.0 0.00 0.00 0.00 12 1003.3
20260508023040 94 0 0.0 2.0 0.00 0.00 0.00 11 1003.0
20260508021537 95 0 0.0 3.0 0.00 0.00 0.00 10 1002.8
20260508020055 97 0 0.0 5.0 0.00 0.00 0.00 8 1002.6
20260508014545 97 358 0.0 5.0 0.00 0.00 0.00 9 1002.7
20260508013035 99 0 0.0 6.0 0.00 0.00 0.00 8 1002.3
20260508011542 99 0 0.0 3.0 0.00 0.00 0.00 7 1002.4
20260508010039 100 0 0.0 3.0 0.00 0.00 0.00 6 1002.5
20260508004538 101 0 0.0 3.0 0.00 0.00 0.00 4 1002.7
20260508003037 102 0 0.0 2.0 0.00 0.00 0.00 4 1002.5
20260508001547 102 0 0.0 0.0 0.00 0.00 0.00 4 1002.4
20260508000035 102 0 0.0 0.0 0.00 0.00 0.00 2 1002.5